TimeMDT,TemperatureF,Dew PointF,Humidity,Sea Level PressureIn,VisibilityMPH,Wind Direction,Wind SpeedMPH,Gust SpeedMPH,PrecipitationIn,Events,Conditions,WindDirDegrees,DateUTC
12:53 AM,46.9,36.0,66,29.83,10.0,East,3.5,-,N/A,,Scattered Clouds,80,2013-10-03 06:53:00
1:53 AM,50.0,37.9,63,29.81,10.0,Calm,Calm,-,N/A,,Overcast,0,2013-10-03 07:53:00
2:53 AM,48.9,37.9,66,29.80,10.0,East,4.6,-,N/A,,Mostly Cloudy,100,2013-10-03 08:53:00
3:53 AM,45.0,39.0,80,29.81,10.0,WNW,4.6,-,N/A,,Mostly Cloudy,300,2013-10-03 09:53:00
4:53 AM,48.0,-9999,N/A,29.84,10.0,NW,5.8,-,N/A,,Overcast,310,2013-10-03 10:53:00
5:53 AM,48.0,-9999,N/A,29.82,10.0,ENE,5.8,-,N/A,,Scattered Clouds,60,2013-10-03 11:53:00
6:53 AM,44.1,-9999,N/A,29.86,10.0,WNW,4.6,-,N/A,,Clear,290,2013-10-03 12:53:00
7:53 AM,44.1,-9999,N/A,29.88,10.0,Calm,Calm,-,N/A,,Clear,0,2013-10-03 13:53:00
8:53 AM,52.0,-9999,N/A,29.86,10.0,NE,12.7,-,N/A,,Clear,40,2013-10-03 14:53:00
9:53 AM,55.0,-9999,N/A,29.84,10.0,ENE,12.7,-,N/A,,Clear,60,2013-10-03 15:53:00
10:53 AM,53.1,-9999,N/A,29.84,10.0,ENE,13.8,-,N/A,,Scattered Clouds,60,2013-10-03 16:53:00
11:02 AM,55.4,-9999,N/A,29.88,10.0,NE,12.7,-,N/A,,Mostly Cloudy,50,2013-10-03 17:02:00
11:53 AM,55.0,-9999,N/A,29.83,10.0,NNE,9.2,-,N/A,,Overcast,30,2013-10-03 17:53:00
12:53 PM,54.0,-9999,N/A,29.82,10.0,ENE,11.5,-,N/A,,Overcast,60,2013-10-03 18:53:00
1:53 PM,55.0,-9999,N/A,29.79,10.0,ENE,12.7,18.4,N/A,,Overcast,60,2013-10-03 19:53:00
2:53 PM,53.1,44.1,71,29.80,10.0,ENE,12.7,-,N/A,,Overcast,60,2013-10-03 20:53:00
3:49 PM,51.8,44.6,76,29.85,10.0,ENE,13.8,-,N/A,,Overcast,60,2013-10-03 21:49:00
3:53 PM,50.0,44.1,80,29.83,10.0,ENE,11.5,-,N/A,,Overcast,60,2013-10-03 21:53:00
4:53 PM,48.9,44.1,83,29.83,10.0,NE,16.1,-,N/A,,Overcast,40,2013-10-03 22:53:00
5:53 PM,46.9,45.0,93,29.83,4.0,NNE,16.1,23.0,0.00,Rain,Light Rain,30,2013-10-03 23:53:00
6:12 PM,46.4,44.6,93,29.87,2.5,NE,11.5,-,0.00,Rain,Light Rain,50,2013-10-04 00:12:00
6:23 PM,46.4,44.6,93,29.86,4.0,ENE,9.2,-,0.01,Rain,Light Rain,60,2013-10-04 00:23:00
6:53 PM,46.9,45.0,93,29.86,5.0,NE,10.4,-,0.01,,Overcast,50,2013-10-04 00:53:00
7:01 PM,46.4,44.6,93,29.86,4.0,NE,9.2,-,N/A,,Overcast,50,2013-10-04 01:01:00
7:09 PM,46.4,44.6,93,29.87,4.0,NE,8.1,-,N/A,,Overcast,50,2013-10-04 01:09:00
7:26 PM,46.4,44.6,93,29.88,10.0,ENE,10.4,-,0.00,Rain,Light Rain,60,2013-10-04 01:26:00
7:53 PM,46.9,45.0,93,29.86,6.0,ENE,11.5,-,0.00,Rain,Light Rain,70,2013-10-04 01:53:00
8:25 PM,46.4,44.6,93,29.88,10.0,NE,10.4,-,0.01,,Overcast,40,2013-10-04 02:25:00
8:53 PM,46.9,44.1,90,29.85,10.0,ENE,11.5,-,0.01,,Overcast,60,2013-10-04 02:53:00
9:16 PM,46.4,44.6,93,29.88,10.0,ENE,12.7,-,N/A,,Overcast,60,2013-10-04 03:16:00
10:53 PM,46.0,43.0,89,29.83,10.0,NE,16.1,23.0,0.00,,Overcast,50,2013-10-04 04:53:00
11:05 PM,46.4,42.8,87,29.86,10.0,NE,12.7,20.7,N/A,Thunderstorm,Overcast,40,2013-10-04 05:05:00
11:20 PM,46.4,42.8,87,29.85,10.0,NE,17.3,21.9,N/A,,Overcast,40,2013-10-04 05:20:00
11:38 PM,46.4,42.8,87,29.85,10.0,NNE,15.0,24.2,N/A,,Overcast,30,2013-10-04 05:38:00
11:53 PM,46.0,43.0,89,29.81,10.0,NNE,15.0,-,N/A,,Overcast,30,2013-10-04 05:53:00